ROMMA est une association bénévole à but non lucratif. Votre soutien est indispensable : ADHERER à ROMMA ou FAIRE un DON

Granges-lès-Beaumont - (26, Drôme)

Drôme des Collines (155 m)   Longitude: 04°58'E   Latitude: 45°03'N Station partenaire n°123
 

Détail journalier du     <<     >>

Température Precipitation Humidité Pression Vent Dir Rafale Dir. rafale Ensol.
Heure (°C) (mm) (%) (hPa) (km/h) (km/h) (min)
01:00 8.80909913ENE13ENE0
02:00 8.40929912ENE8ENE0
03:00 8.80909926NE16ENE0
04:00 8.80909923NE11SSO0
05:00 9.20879915SSE18SE0
06:00 9.50859923ENE15SSO0
07:00 10.308199412SSO37S0
08:00 9.80829954SSO19S0
09:00 9.90819974SE13S0
10:00 10.60789987E23E0
11:00 10.608010006ENE21E0
12:00 12.906910009SE23SE0
13:00 12.307010014SSE18SO0
14:00 12.906710014SO15SO10
15:00 12.806810003SO13SE20
16:00 12.806410004SSE13SE20
17:00 11.806410015SO11SSO0
18:00 11.406510025SO13OSO0
19:00 10.80.47510034O11OSO0
20:00 9.308310045ENE19OSO0
21:00 8.708610054NNE11E0
22:00 8.108910064ESE13ESE0
23:00 6.809010072NNE10NE0
minuit 6.909010083E13E0

Graphique du 22-12-2019

 

Serveur OMMA